Simultaneous Nadir Overpasses (SNOs) Predictions

Prediction of SNOs between NOAA-20 and AQUA Satellite Orbit:

Table of predicted SNOs for the next 14.0 days since TLE Epoch: 2/8/2019
Index Date (NOAA-20) Time (NOAA-20) Lat,Lon (NOAA-20) SZA (NOAA-20 ) Date (AQUA) Time (AQUA) Lat,Lon (AQUA) SZA (AQUA ) Distance(km) Time Diff (sec)
1 02/08/2019 22:13:20 75.89, 85.49 112.55 02/08/2019 22:13:33 75.88, 85.40 112.57 2.64 13
2 02/08/2019 23:03:47 -76.74,-104.12 68.51 02/08/2019 23:02:43 -76.74,-104.16 68.44 1.27 64
3 02/11/2019 13:39:56 -74.80, 30.62 67.01 02/11/2019 13:40:59 -74.81, 30.65 67.07 0.84 63
4 02/11/2019 14:30:11 76.16,-157.83 111.38 02/11/2019 14:29:57 76.15,-157.88 111.41 1.73 14
5 02/14/2019 05:56:46 -75.13, 147.32 68.26 02/14/2019 05:57:22 -75.14, 147.39 68.31 2.16 36
6 02/14/2019 06:47:01 76.47, -40.95 110.13 02/14/2019 06:46:20 76.46, -40.99 110.18 1.22 41
7 02/16/2019 22:13:26 -75.91, -94.46 70.09 02/16/2019 22:13:36 -75.90, -94.55 70.07 2.85 10
8 02/16/2019 23:03:51 76.77, 75.97 108.85 02/16/2019 23:02:43 76.76, 75.93 108.92 1.12 68
9 02/19/2019 13:39:56 74.96,-148.94 110.12 02/19/2019 13:40:55 74.96,-148.96 110.07 0.57 59
10 02/19/2019 14:30:14 -76.26, 22.53 71.45 02/19/2019 14:29:57 -76.25, 22.44 71.42 2.52 17
11 02/22/2019 05:56:43 75.42, -31.81 108.62 02/22/2019 05:57:15 75.41, -31.83 108.60 0.74 32




NCC Satellite Simultaneous Nadir Overpasses (SNOs) Prediction Service
